sat.trackr.live / text

‹ back to catalog

QIANFAN-19

NORAD 61552 · 2024-185A

PAYLOAD ACTIVE UNKNOWN

§ Identity

Operator
Country
PRC
Launch date
2024-10-15
Launch site
TAISC
Launch vehicle
Mass (kg)
RCS (m²)

External: N2YO · Heavens-Above · Gunter

§ Orbital elements

Epoch: 2026-09-22T20:03:51.175008Z

Period
101.80 min
Inclination
88.9861°
Eccentricity
0.0008915
Mean motion
14.14533161 rev/d
Perigee alt
837.5 km
Apogee alt
850.3 km
Semi-major
7,222.0 km
B*
1.4190e-4
RAAN
45.3945°
Arg perigee
108.3893°
Mean anomaly
251.8264°
Rev number
10,982

§ Raw data

QIANFAN-191 61552U 24185A   26265.83600897  .00000286  00000+0  14190-3 0  99942 61552  88.9861  45.3945 0008915 108.3893 251.8264 14.14533161109823

JSON: /api/v1/satellites/61552 · /tle

For live sub-satellite position, see the globe view (requires WebGL).

§ Visibility from observer

Set your observer location to see the next 7 days of passes ≥ 10°. The values pass through the URL so the page stays shareable.

No JS? Fill the form by hand. The geolocation button needs JavaScript.